Location: Assche-ter-Heiden
(50.9174°N, 4.1574°E)
Time: 20:58:08
(UTC+00:00)

Cosmos 1624 Rocket - Pass Details

Date: 20 January 2020
Orbit: 758 x 783 km, 74.0° (Epoch: 16 February)

Event Time Altitude Azimuth Distance (km) Brightness Sun altitude
Exits shadow 06:31:59 - 331° (NNW) 2,827 6.5 -9.9°
Reaches altitude 10° 06:33:20 10° 329° (NNW) 2,311 6.0 -9.7°
Maximum altitude 06:38:27 58° 252° (WSW) 886 4.1 -8.9°
Drops below altitude 10° 06:43:32 10° 174° (S) 2,284 6.9 -8.2°
Sets 06:45:54 0° 170° (S) 3,204 7.7 -7.8°
